Weather in Demidovka

Ukraine / Rovno District     50°25′51″N   25°20′11″E
temp.,
°C
wind,
m/s
gust,
m/s
humid.,
%
clouds,
%
prec.,
mm/h
press.,
hPa
HPBL,
m
29 june, wed
wed2900:00+21se3367100 0.0 101825
03:00+20sse3374100 0.0 101836
06:00+20s2275100 0.0 101824
09:00+24s236473 0.0 1017299
12:00+29sse33535 0.0 1016938
15:00+31s134028 0.0 10162413
18:00+31sw12405 0.0 10142202
21:00+25nne22620 0.0 101418
30 june, thu
thu3000:00+22e34702 0.1 101453
03:00+19se35801 0.1 101477
06:00+20ese11822 0.0 101411
09:00+24ene457086 0.0 1015337
12:00+28e44595 0.0 1015858
15:00+30e44535 0.0 10151398
18:00+29e445693 0.0 10141372
21:00+24ese497991 0.0 1015215
1 july, fri
fri100:00+21e412808 0.0 1016300
03:00+18ese411935 0.0 1017254
06:00+18ese410935 0.0 1017208
09:00+22ese697319 0.0 1017488
12:00+26ese67576 0.0 10171178
15:00+28ese66460 0.0 10171508
18:00+27ese67530 0.0 10161178
21:00+22ese513650 0.0 1017312
2 july, sat
sat200:00+20se514610 0.0 1017334
03:00+18se411704 0.0 1018206
06:00+17sse37660 0.0 1019118
09:00+22s59543 0.0 1019423
12:00+27ssw45545 0.0 10191124
15:00+26w766830 0.1 1020873
18:00+21wnw6784100 0.3 1020575
21:00+18wnw4789100 0.5 1021593
3 july, sun
sun300:00+17wnw4797100 2.9 1021519
03:00+16w3698100 6.7 1021391
06:00+16wnw4697100 0.1 1021440
09:00+16nw4693100 0.2 1021469
12:00+16nw4591100 0.0 1022505
15:00+17nw4486100 0.1 1021513
18:00+18nw1283100 0.0 1021233
21:00+18wsw228627 0.0 102044